Location: Ahausen
(50.4985°N, 8.2722°E)
Time: 15:50:46
(UTC+00:00)

COSMOS 2406 - Pass Details

Date: 18 September 2020
Orbit: 844 x 863 km, 71.0° (Epoch: 21 October)

Event Time Altitude Azimuth Distance (km) Brightness Sun altitude
Rises 20:46:32 0° 329° (NNW) 3,416 7.5 -28.6°
Reaches altitude 10° 20:48:59 10° 327° (NNW) 2,476 6.5 -28.8°
Enters shadow 20:54:22 69° 266° (W) 904 3.3 -29.4°
